This is the latest recevied weather packets stored in our database for station/object SP2WPY-13. If no packets are shown the sender has not sent any weather packets the latest 10 day(s).
| Time | Temp. | Humidity | Pressure | Rain* | Wind** | Luminosity | Snow |
|---|---|---|---|---|---|---|---|
| 1787472310 | 15° C | 100% | 1016.6 hPa | - | - | - | - |
| 1787472035 | 15° C | 100% | 1016.6 hPa | - | - | - | - |
| 1787471716 | 15° C | 100% | 1016.5 hPa | - | - | - | - |
| 1787471441 | 15° C | 100% | 1016.5 hPa | - | - | - | - |
| 1787471121 | 15° C | 100% | 1016.3 hPa | - | - | - | - |
| 1787470802 | 15.56° C | 100% | 1016.3 hPa | - | - | - | - |
| 1787470528 | 15.56° C | 100% | 1016.3 hPa | - | - | - | - |
| 1787470209 | 15.56° C | 100% | 1016.1 hPa | - | - | - | - |
| 1787469934 | 15.56° C | 100% | 1016.2 hPa | - | - | - | - |
| 1787469614 | 15.56° C | 100% | 1016 hPa | - | - | - | - |
| 1787469341 | 15.56° C | 100% | 1016.1 hPa | - | - | - | - |
| 1787469021 | 15.56° C | 100% | 1016.1 hPa | - | - | - | - |
| 1787468702 | 15.56° C | 100% | 1016.1 hPa | - | - | - | - |
| 1787468427 | 16.11° C | 100% | 1016 hPa | - | - | - | - |
| 1787468107 | 16.11° C | 100% | 1015.9 hPa | - | - | - | - |
| 1787467834 | 15.56° C | 100% | 1015.9 hPa | - | - | - | - |
| 1787467513 | 16.11° C | 100% | 1015.9 hPa | - | - | - | - |
| 1787467240 | 16.67° C | 100% | 1015.8 hPa | - | - | - | - |
| 1787466920 | 16.11° C | 100% | 1015.8 hPa | - | - | - | - |
| 1787466646 | 16.11° C | 100% | 1015.7 hPa | - | - | - | - |
| 1787466327 | 16.11° C | 100% | 1015.7 hPa | - | - | - | - |
| 1787466006 | 16.11° C | 100% | 1015.6 hPa | - | - | - | - |
| 1787465733 | 15.56° C | 100% | 1015.6 hPa | - | - | - | - |
| 1787465413 | 15.56° C | 100% | 1015.6 hPa | - | - | - | - |
| 1787465139 | 16.11° C | 100% | 1015.5 hPa | - | - | - | - |
* Rain since midnight (hover to see other rain measurements)
** Current wind speed in m/s (hover to see current wind gust speed)